Tracking 18945 objects as of 21-Jan-2018
HD Live streaming from Space Station
objects crossing your sky now

FENGYUN 1C DEB

Track FENGYUN 1C DEB now!
10-day predictions


NORAD ID: 37003
Int'l Code: 1999-025ECK
Perigee: 854.5 km
Apogee: 1,002.8 km
Inclination: 99.1 °
Period: 103.4 minutes
Semi major axis: 7299 km
RCS: 0.0127 m2 (small)
Launch date: May 10, 1999
Source: People's Republic of China (PRC)
Launch site: Taiyaun Space Center, China (TSC)

Note: This is SATELLITE DEBRIS
aabbcc
Your satellite tracking list
Your tracking list is empty




NASA's NSSDC Master Catalog

Two Line Element Set (TLE):
1 37003U 99025ECK 18018.37948095 +.00000131 +00000-0 +13106-3 0  9990
2 37003 099.1492 083.6461 0101582 127.5751 294.7728 13.92039226204778
Source of the keplerian elements: AFSPC